Waarnemingen

Advertentie
Mijn weer
Messina, Italië (16420): temperatuur & dauwpunt: 19.09.2018 11:00:00 - 25.09.2018 11:00:00 (CEST)Messina, Italië (16420): windsnelheid: 19.09.2018 11:00:00 - 25.09.2018 11:00:00 (CEST)Messina, Italië (16420): windrichting: 19.09.2018 11:00:00 - 25.09.2018 11:00:00 (CEST)Messina, Italië (16420): luchtdruk: 19.09.2018 11:00:00 - 25.09.2018 11:00:00 (CEST)Messina, Italië (16420): zicht: 19.09.2018 11:00:00 - 25.09.2018 11:00:00 (CEST)Messina, Italië (16420): Zonneschijnduur: 19.09.2018 11:00:00 - 25.09.2018 11:00:00 (CEST)
Datum & Tijd tt [°C] td [°C] ff [km/u] ff [kn] dd ppp [hPa] vv [km] sd [min]
25.09.2018 11:00:00 27,4 21,2 11 6 Z 1019,1 20 60
25.09.2018 10:00:00 26,8 21,1 9 5 ONO 1018,4 20 60
25.09.2018 09:00:00 26,6 22,0 9 5 NO 1018,1 20 42
25.09.2018 08:00:00 24,8 20,9 5 3 NNW 1017,5 20 0
25.09.2018 07:00:00 24,4 20,3 8 4 NNW 1017,2 20 -
25.09.2018 06:00:00 24,8 20,5 5 3 N 1016,8 16 -
25.09.2018 05:00:00 24,6 20,7 8 4 N 1016,9 16 -
25.09.2018 04:00:00 24,4 20,9 8 4 NNW 1017,1 16 -
25.09.2018 03:00:00 24,0 20,7 8 4 NW 1017,7 16 -
25.09.2018 02:00:00 24,0 21,1 5 3 N 1016,5 16 -
25.09.2018 01:00:00 24,4 21,7 5 3 N 1016,4 16 -
25.09.2018 00:00:00 24,8 22,1 8 4 N 1016,4 16 -
24.09.2018 23:00:00 25,2 22,1 8 4 NNW 1016,3 16 -
24.09.2018 22:00:00 25,2 22,3 5 3 NNO 1016,3 16 -
24.09.2018 21:00:00 25,2 21,9 8 4 NNO 1016,0 14 -
24.09.2018 20:00:00 25,8 22,1 5 3 NNO 1015,3 14 -
24.09.2018 19:00:00 26,0 22,1 9 5 NNO 1015,1 16 0
24.09.2018 18:00:00 26,2 21,2 11 6 NNO 1015,0 16 0
24.09.2018 17:00:00 26,8 22,0 11 6 NNO 1014,9 16 30
24.09.2018 16:00:00 28,0 22,0 13 7 NNW 1015,0 16 60
24.09.2018 15:00:00 28,4 19,9 13 7 NW 1015,2 16 60
24.09.2018 14:00:00 28,0 21,1 18 10 ONO 1015,5 16 60
24.09.2018 13:00:00 28,2 21,2 18 10 NO 1016,2 12 60
24.09.2018 12:00:00 28,0 21,5 13 7 ONO 1016,5 12 60
24.09.2018 11:00:00 27,2 21,9 13 7 NO 1016,5 12 60
24.09.2018 10:00:00 26,4 19,3 8 4 NO 1016,3 12 60
24.09.2018 09:00:00 25,4 21,3 11 6 NO 1016,2 12 60
24.09.2018 08:00:00 23,6 20,2 4 2 ONO 1016,3 14 0
24.09.2018 07:00:00 23,2 20,5 8 4 N 1016,4 14 0
24.09.2018 06:00:00 23,6 21,1 5 3 N 1016,9 12 -
24.09.2018 05:00:00 23,6 21,3 5 3 NNW 1017,3 10 -
24.09.2018 04:00:00 23,8 21,5 8 4 N 1017,9 12 -
24.09.2018 03:00:00 24,0 21,5 8 4 N 1018,3 12 -
24.09.2018 02:00:00 24,2 21,5 4 2 N 1018,6 12 -
24.09.2018 01:00:00 24,2 21,3 8 4 N 1019,1 12 -
24.09.2018 00:00:00 24,0 21,3 4 2 N 1019,3 12 -
23.09.2018 23:00:00 24,4 21,5 5 3 N 1019,3 12 -
23.09.2018 22:00:00 24,6 21,5 4 2 N 1019,3 12 -
23.09.2018 21:00:00 25,0 21,5 5 3 N 1019,1 16 -
23.09.2018 20:00:00 25,0 21,3 5 3 N 1019,0 20 -
23.09.2018 19:00:00 25,4 21,3 5 3 NNO 1019,0 20 18
23.09.2018 18:00:00 27,4 21,0 13 7 NNO 1019,0 20 60
23.09.2018 17:00:00 28,4 20,9 16 9 NO 1019,0 20 60
23.09.2018 16:00:00 28,2 20,5 16 9 NO 1019,1 20 60
23.09.2018 15:00:00 28,8 18,0 18 10 NO 1019,3 20 60
23.09.2018 14:00:00 28,8 20,3 24 13 NO 1020,0 20 60
23.09.2018 13:00:00 29,2 20,4 16 9 ONO 1020,2 20 60
23.09.2018 12:00:00 28,2 19,2 16 9 NO 1020,2 20 60
23.09.2018 11:00:00 27,8 21,3 16 9 ONO 1020,0 20 60
23.09.2018 10:00:00 26,4 20,0 8 4 NNO 1020,0 20 60
23.09.2018 09:00:00 25,6 20,6 5 3 NNO 1019,3 20 60
23.09.2018 08:00:00 24,0 20,9 5 3 NNO 1018,4 20 48
23.09.2018 07:00:00 23,4 20,7 5 3 N 1018,3 20 0
23.09.2018 06:00:00 23,6 20,9 5 3 NNO 1018,3 20 -
23.09.2018 05:00:00 23,4 20,7 5 3 N 1018,3 20 -
23.09.2018 04:00:00 23,6 20,7 5 3 NNW 1018,3 20 -
23.09.2018 03:00:00 23,6 20,7 5 3 N 1018,4 20 -
23.09.2018 02:00:00 23,8 20,5 4 2 NW 1018,3 20 -
23.09.2018 01:00:00 23,4 20,3 5 3 NW 1018,3 20 -
23.09.2018 00:00:00 23,4 20,0 4 2 N 1018,3 20 -
22.09.2018 23:00:00 23,8 16,8 0 0 N 1018,1 20 -
22.09.2018 22:00:00 24,2 20,7 2 1 ZZO 1018,1 20 -
22.09.2018 21:00:00 24,6 20,9 4 2 N 1017,4 16 -
22.09.2018 20:00:00 25,4 21,9 4 2 WZW 1016,9 16 -
22.09.2018 19:00:00 25,6 21,7 8 4 ZZW 1016,3 20 18
22.09.2018 18:00:00 26,6 21,8 8 4 ZZW 1016,3 20 60
22.09.2018 17:00:00 26,8 21,5 11 6 ZZW 1016,2 20 60
22.09.2018 16:00:00 27,0 21,5 16 9 ZZW 1016,3 20 60
22.09.2018 15:00:00 26,6 21,6 18 10 ZZW 1016,5 20 60
22.09.2018 14:00:00 27,0 21,1 15 8 WZW 1016,5 20 60
22.09.2018 13:00:00 26,8 20,6 18 10 ZZW 1016,5 20 60
22.09.2018 12:00:00 26,8 19,9 16 9 ZZW 1016,4 20 60
22.09.2018 11:00:00 26,0 21,0 16 9 WZW 1016,4 20 60
22.09.2018 10:00:00 25,4 20,9 13 7 ZW 1016,2 18 60
22.09.2018 09:00:00 24,6 20,5 8 4 ZZW 1015,4 18 60
22.09.2018 08:00:00 23,6 20,0 4 2 ZW 1015,3 18 6
22.09.2018 07:00:00 23,0 19,8 9 5 WZW 1015,3 18 -
22.09.2018 06:00:00 23,2 20,2 8 4 WZW 1015,3 14 -
22.09.2018 05:00:00 23,0 20,3 11 6 WZW 1015,2 12 -
22.09.2018 04:00:00 23,0 20,3 8 4 WZW 1015,3 12 -
22.09.2018 03:00:00 23,4 20,2 5 3 WZW 1015,5 12 -
22.09.2018 02:00:00 24,0 20,7 8 4 ZW 1015,5 12 -
22.09.2018 01:00:00 24,0 19,9 5 3 ZW 1015,5 12 -
22.09.2018 00:00:00 24,0 19,9 9 5 ZW 1015,4 12 -
21.09.2018 23:00:00 24,0 19,1 9 5 ZW 1015,3 12 -
21.09.2018 22:00:00 24,2 18,8 11 6 ZW 1015,3 12 -
21.09.2018 21:00:00 24,4 19,9 9 5 ZW 1015,3 12 -
21.09.2018 20:00:00 24,4 19,9 11 6 ZW 1014,4 15 -
21.09.2018 19:00:00 24,6 20,3 15 8 ZZW 1014,4 18 0
21.09.2018 18:00:00 25,0 20,7 16 9 ZZW 1014,4 18 36
21.09.2018 17:00:00 25,2 20,7 18 10 ZZW 1014,4 18 24
21.09.2018 16:00:00 25,4 20,0 18 10 ZW 1014,6 18 60
21.09.2018 15:00:00 26,0 19,9 22 12 ZZW 1014,9 18 60
21.09.2018 14:00:00 26,6 20,0 22 12 ZZW 1015,1 18 60
21.09.2018 13:00:00 25,8 19,0 22 12 ZZW 1015,2 14 60
21.09.2018 12:00:00 25,2 18,6 18 10 ZZW 1015,3 14 30
21.09.2018 11:00:00 25,8 18,7 16 9 ZZW 1015,2 16 60
21.09.2018 10:00:00 25,2 17,9 18 10 ZZW 1015,0 16 60
21.09.2018 09:00:00 25,0 4,2 16 9 ZW 1014,6 16 60
21.09.2018 08:00:00 23,6 17,8 13 7 ZW 1014,3 16 0
21.09.2018 07:00:00 23,2 17,4 15 8 ZW 1014,4 16 -
21.09.2018 06:00:00 23,0 17,2 15 8 ZW 1014,6 12 -
21.09.2018 05:00:00 23,0 17,2 9 5 ZW 1014,8 12 -
21.09.2018 04:00:00 22,6 18,6 11 6 ZW 1015,2 12 -
21.09.2018 03:00:00 21,8 17,8 5 3 ZW 1015,4 12 -
21.09.2018 02:00:00 22,0 18,4 0 0 N 1015,4 12 -
21.09.2018 01:00:00 23,0 20,3 0 0 N 1015,6 12 -
21.09.2018 00:00:00 22,8 20,1 0 0 N 1015,7 12 -
20.09.2018 23:00:00 23,0 20,3 0 0 N 1015,6 12 -
20.09.2018 22:00:00 23,0 19,4 0 0 N 1015,6 12 -
20.09.2018 21:00:00 23,0 20,0 4 2 ZO 1015,4 12 -
20.09.2018 20:00:00 22,8 20,3 4 2 Z 1015,4 12 -
20.09.2018 19:00:00 22,6 20,9 8 4 ZW 1015,5 12 -
20.09.2018 18:00:00 24,2 20,9 11 6 ZZW 1015,4 10 0
20.09.2018 17:00:00 24,0 19,9 8 4 Z 1016,0 15 0
20.09.2018 16:00:00 23,4 21,9 4 2 ZZW 1016,3 9 -
20.09.2018 15:00:00 24,2 19,9 4 2 N 1016,3 12 6
20.09.2018 14:00:00 23,6 19,3 5 3 ONO 1016,9 10 0
20.09.2018 13:00:00 27,4 20,2 16 9 Z 1016,2 10 48
20.09.2018 12:00:00 27,4 22,1 18 10 ZW 1016,7 10 60
20.09.2018 11:00:00 27,6 21,6 16 9 ZZW 1016,8 18 60
20.09.2018 10:00:00 26,8 22,2 16 9 Z 1016,6 18 42
20.09.2018 09:00:00 25,8 21,7 9 5 ZW 1016,5 18 0
20.09.2018 08:00:00 24,6 20,3 5 3 ZW 1016,5 20 0
20.09.2018 07:00:00 24,2 18,8 5 3 WZW 1016,4 20 -
20.09.2018 06:00:00 24,0 19,1 0 0 N 1016,4 16 -
20.09.2018 05:00:00 24,2 19,9 2 1 W 1016,5 16 -
20.09.2018 04:00:00 24,4 20,1 0 0 N 1016,7 20 -
20.09.2018 03:00:00 24,8 19,6 0 0 N 1017,5 16 -
20.09.2018 02:00:00 25,0 18,9 0 0 N 1017,5 16 -
20.09.2018 01:00:00 25,2 17,9 0 0 N 1017,5 16 -
20.09.2018 00:00:00 25,4 18,1 0 0 N 1017,5 16 -
19.09.2018 23:00:00 25,6 17,5 9 5 NNW 1018,0 10 -
19.09.2018 22:00:00 25,4 17,9 5 3 N 1018,0 12 -
19.09.2018 21:00:00 25,0 21,1 8 4 NW 1017,2 12 -
19.09.2018 20:00:00 25,2 22,1 0 0 N 1017,2 12 -
19.09.2018 19:00:00 26,0 22,3 5 3 ZZW 1017,3 12 0
19.09.2018 18:00:00 26,2 20,8 11 6 ZZW 1017,3 12 0
19.09.2018 17:00:00 26,8 22,4 11 6 ZZW 1017,3 12 0
19.09.2018 16:00:00 26,4 21,8 16 9 ZZW 1017,4 12 0
19.09.2018 15:00:00 26,8 22,4 13 7 ZZW 1017,4 12 6
19.09.2018 14:00:00 28,8 19,7 21 11 WZW 1017,4 16 60
19.09.2018 13:00:00 28,2 19,7 18 10 ZZW 1018,1 16 60
19.09.2018 12:00:00 28,0 19,5 18 10 ZZW 1018,3 16 60
19.09.2018 11:00:00 27,2 21,3 11 6 ZW 1018,3 20 60

tt = temperatuur
td = dauwpunt
ff = windsnelheid
dd = windrichting
ppp = luchtdruk
vv = zicht
sd = Zonneschijnduur

Weerstations in de omgeving